Weather History for Cape Girardeau, MO

Change the Weather History Date:

Saturday, November 17, 2012

  Actual Average Record
Temperature  
Mean Temperature 44 °F 46 °F  
Max Temperature 60 °F 57 °F 74 °F (2001)
Min Temperature 28 °F 36 °F 14 °F (1997)
Degree Days  
Heating Degree Days 21 19  
Month to date heating degree days 314 264  
Since 1 July heating degree days 659 567  
Cooling Degree Days 0 0  
Month to date cooling degree days 0 0  
Year to date cooling degree days 1784 1451  
Moisture  
Dew Point 31 °F    
Average Humidity 63    
Maximum Humidity 92    
Minimum Humidity 33    
Precipitation  
Precipitation 0.00 in 0.15 in 1.17 in (1969)
Month to date precipitation 1.24 2.39  
Year to date precipitation 25.20 40.51  
Sea Level Pressure  
Sea Level Pressure 30.45 in    
Wind  
Wind Speed 2 mph (NE)    
Max Wind Speed 8 mph    
Max Gust Speed 14 mph    
Visibility 9 miles    
Events      
T = Trace of Precipitation, MM = Missing Value Source: NWS Daily Summary

Daily Weather History Graph

Daily Weather History Graph

Search for Another Location

Airport:

Trip Planner

Search our weather history database for the weather conditions in past years. The results will help you decide how hot, cold, wet, or windy it might be!

Date:

Astronomy

Nov. 17, 2012 Rise Set
Actual Time 6:39 AM CST 4:46 PM CST
Civil Twilight 6:11 AM CST 5:14 PM CST
Nautical Twilight 5:40 AM CST 5:45 PM CST
Astronomical Twilight 5:09 AM CST 6:16 PM CST
Moon 10:24 AM CST (11/17) 8:56 PM CST (11/17)
Length of Visible Light 11h 02m
Length of Day
10h 06m
Waxing Crescent, 20% of the Moon is Illuminated
Nov 17
Waxing Crescent
Nov 20
First Quarter
Nov 28
Full
Dec 6
Last Quarter
Dec 13
New

Hourly Weather History & Observations

Time (CST) Temp. Windchill Dew Point Humidity Pressure Visibility Wind Dir Wind Speed Gust Speed Precip Events Conditions
12:53 AM 30.9 °F 27.5 °F 27.0 °F 85% 30.46 in 10.0 mi WSW 3.5 mph - N/A   Clear
1:53 AM 30.9 °F - 27.0 °F 85% 30.45 in 10.0 mi Calm Calm - N/A   Clear
2:53 AM 28.9 °F - 26.1 °F 89% 30.45 in 10.0 mi Calm Calm - N/A   Clear
3:53 AM 30.0 °F - 28.0 °F 92% 30.46 in 9.0 mi Calm Calm - N/A   Clear
4:53 AM 28.0 °F - 25.0 °F 88% 30.47 in 8.0 mi Calm Calm - N/A   Clear
5:53 AM 30.0 °F - 27.0 °F 88% 30.48 in 7.0 mi Calm Calm - N/A   Clear
6:53 AM 28.9 °F - 26.1 °F 89% 30.49 in 6.0 mi Calm Calm - N/A   Clear
7:53 AM 32.0 °F - 28.9 °F 88% 30.51 in 5.0 mi Calm Calm - N/A   Clear
8:53 AM 41.0 °F 39.0 °F 34.0 °F 76% 30.51 in 7.0 mi ENE 3.5 mph - N/A   Clear
9:53 AM 46.0 °F 44.8 °F 35.1 °F 66% 30.52 in 8.0 mi NNW 3.5 mph - N/A   Clear
10:53 AM 52.0 °F - 34.0 °F 50% 30.50 in 10.0 mi East 5.8 mph - N/A   Clear
11:53 AM 55.0 °F - 33.1 °F 43% 30.46 in 10.0 mi East 4.6 mph - N/A   Clear
1:53 PM 59.0 °F - 34.0 °F 39% 30.41 in 10.0 mi Variable 4.6 mph - N/A   Clear
2:53 PM 59.0 °F - 30.9 °F 35% 30.40 in 10.0 mi Calm Calm - N/A   Clear
3:53 PM 57.9 °F - 34.0 °F 41% 30.40 in 10.0 mi Calm Calm - N/A   Clear
4:53 PM 52.0 °F - 37.0 °F 57% 30.40 in 10.0 mi Calm Calm - N/A   Clear
5:53 PM 48.0 °F - 33.1 °F 56% 30.40 in 10.0 mi Calm Calm - N/A   Clear
6:53 PM 44.1 °F 42.5 °F 33.1 °F 65% 30.40 in 10.0 mi ESE 3.5 mph - N/A   Clear
7:53 PM 37.9 °F - 30.9 °F 76% 30.41 in 10.0 mi Calm Calm - N/A   Clear
8:53 PM 34.0 °F 31.0 °F 30.0 °F 85% 30.41 in 10.0 mi WNW 3.5 mph - N/A   Clear
9:53 PM 35.1 °F - 30.0 °F 82% 30.43 in 10.0 mi Calm Calm - N/A   Clear
10:53 PM 33.1 °F - 28.9 °F 85% 30.42 in 10.0 mi Calm Calm - N/A   Clear
11:53 PM 33.1 °F - 28.9 °F 85% 30.42 in 10.0 mi Calm Calm - N/A   Clear